BARLOW-WX Weather Reports


time (UTC)temp
C
wind
direction
speed
KPH
gust
KPH
rain 1hr
cm
rain 24hr
cm
rain mn
cm
humidity
%
barometer
mb
20260509041618 7 175 8.0 0.0 0.00 0.00 0.00 54 978.5
20260509040156 8 178 8.0 0.0 0.00 0.00 0.00 54 978.5
20260509034618 8 192 8.0 0.0 0.00 0.00 0.00 47 979.4
20260509033134 8 189 8.0 0.0 0.00 0.00 0.00 46 980.1
20260509031618 8 180 8.0 0.0 0.00 0.00 0.00 46 980.1
20260509030152 9 180 9.7 0.0 0.00 0.00 0.00 46 980.1
20260509024617 9 168 8.0 0.0 0.00 0.00 0.00 30 980.2
20260509023136 10 178 8.0 0.0 0.00 0.00 0.00 38 980.4
20260509021618 10 192 8.0 0.0 0.00 0.00 0.00 38 980.3
20260509020148 10 211 4.8 0.0 0.00 0.00 0.00 38 980.3
20260509014616 10 223 6.4 0.0 0.00 0.00 0.00 41 980.0
20260509013132 11 235 6.4 0.0 0.00 0.00 0.00 41 980.0
20260509011617 11 248 6.4 0.0 0.00 0.00 0.00 41 980.1
20260509010145 12 264 6.4 0.0 0.00 0.00 0.00 41 980.1
20260509004615 12 273 6.4 0.0 0.00 0.00 0.00 35 979.8
20260509003134 12 265 8.0 0.0 0.00 0.00 0.00 34 981.0
20260509001616 13 270 6.4 0.0 0.00 0.00 0.00 34 981.0
20260509000200 13 270 6.4 0.0 0.00 0.00 0.00 34 981.0
20260508234618 14 268 9.7 0.0 0.00 0.00 0.00 27 980.3
20260508233138 15 267 11.3 0.0 0.00 0.00 0.00 25 980.9
20260508231620 15 267 12.9 0.0 0.00 0.00 0.00 25 980.9
20260508230143 15 273 12.9 0.0 0.00 0.00 0.00 25 980.9
20260508224619 15 276 14.5 0.0 0.00 0.00 0.00 25 980.8
20260508223138 16 274 16.1 0.0 0.00 0.00 0.00 22 981.8
20260508221620 15 276 16.1 0.0 0.00 0.00 0.00 22 981.8
20260508220145 16 276 16.1 0.0 0.00 0.00 0.00 22 981.8
20260508214619 16 274 17.7 0.0 0.00 0.00 0.00 23 982.3
20260508213137 16 269 17.7 0.0 0.00 0.00 0.00 23 981.7
20260508211620 16 256 17.7 0.0 0.00 0.00 0.00 23 981.8
20260508210149 16 255 17.7 0.0 0.00 0.00 0.00 23 981.8
20260508204620 16 251 17.7 0.0 0.00 0.00 0.00 28 982.1
20260508203138 16 249 17.7 0.0 0.00 0.00 0.00 27 981.7
20260508201620 17 246 16.1 0.0 0.00 0.00 0.00 27 981.7
20260508200146 17 237 16.1 0.0 0.00 0.00 0.00 27 981.7
20260508194620 17 229 12.9 0.0 0.00 0.00 0.00 26 981.9
20260508193135 16 236 14.5 0.0 0.00 0.00 0.00 26 981.9
20260508191619 17 263 16.1 0.0 0.00 0.00 0.00 26 982.0
20260508190143 17 257 12.9 0.0 0.00 0.00 0.00 26 982.0
20260508184620 16 250 12.9 0.0 0.00 0.00 0.00 27 982.5
20260508183139 16 236 16.1 0.0 0.00 0.00 0.00 31 982.1
20260508181619 16 238 16.1 0.0 0.00 0.00 0.00 31 982.1
20260508180151 16 240 14.5 0.0 0.00 0.00 0.00 31 982.1
20260508174620 16 239 14.5 0.0 0.00 0.00 0.00 33 983.1
20260508173138 15 242 14.5 0.0 0.00 0.00 0.00 33 983.1
20260508171620 15 238 14.5 0.0 0.00 0.00 0.00 33 983.1
20260508170145 15 243 16.1 0.0 0.00 0.00 0.00 33 983.1
20260508164619 15 243 14.5 0.0 0.00 0.00 0.00 34 983.3
20260508163138 15 238 12.9 0.0 0.00 0.00 0.00 34 983.6
20260508161620 14 238 11.3 0.0 0.00 0.00 0.00 34 983.5
20260508160150 13 234 11.3 0.0 0.00 0.00 0.00 34 983.5
20260508154620 13 228 9.7 0.0 0.00 0.00 0.00 45 984.5
20260508153140 12 207 9.7 0.0 0.00 0.00 0.00 52 983.5
20260508151620 12 202 9.7 0.0 0.00 0.00 0.00 52 983.5
20260508150150 11 205 8.0 0.0 0.00 0.00 0.00 52 983.5
20260508144620 11 201 8.0 0.0 0.00 0.00 0.00 67 983.7
20260508143138 11 201 8.0 0.0 0.00 0.00 0.00 63 983.8
20260508141620 10 192 8.0 0.0 0.00 0.00 0.00 63 983.8
20260508140158 10 188 6.4 0.0 0.00 0.00 0.00 65 983.6
20260508134620 9 186 6.4 0.0 0.00 0.00 0.00 73 983.5
20260508133134 8 189 8.0 0.0 0.00 0.00 0.00 73 983.5
20260508131620 7 191 8.0 0.0 0.00 0.00 0.00 73 983.5
20260508130154 7 191 8.0 0.0 0.00 0.00 0.00 73 983.5
20260508124620 6 192 8.0 0.0 0.00 0.00 0.00 85 982.8
20260508123139 6 195 8.0 0.0 0.00 0.00 0.00 85 983.4
20260508121620 5 193 6.4 0.0 0.00 0.00 0.00 85 983.4
20260508120212 4 189 3.2 0.0 0.00 0.00 0.00 85 983.4
20260508114619 3 193 3.2 0.0 0.00 0.00 0.00 84 982.9
20260508113141 2 184 4.8 0.0 0.00 0.00 0.00 77 983.5
20260508111619 2 167 3.2 0.0 0.00 0.00 0.00 77 983.6
20260508110145 2 156 4.8 0.0 0.00 0.00 0.00 77 983.6
20260508104621 2 141 4.8 0.0 0.00 0.00 0.00 77 982.5
20260508103139 2 132 3.2 0.0 0.00 0.00 0.00 76 983.6
20260508101623 2 131 3.2 0.0 0.00 0.00 0.00 76 983.7
20260508100146 3 114 3.2 0.0 0.00 0.00 0.00 76 983.7
20260508094621 3 110 3.2 0.0 0.00 0.00 0.00 76 982.9
20260508093135 3 107 3.2 0.0 0.00 0.00 0.00 80 983.6
20260508091622 3 153 1.6 0.0 0.00 0.00 0.00 80 983.6
20260508090150 3 146 1.6 0.0 0.00 0.00 0.00 80 983.6
20260508084621 3 158 1.6 0.0 0.00 0.00 0.00 83 983.1
20260508083139 3 189 1.6 0.0 0.00 0.00 0.00 85 982.9
20260508081621 3 198 6.4 0.0 0.00 0.00 0.00 85 982.9
20260508080153 3 183 6.4 0.0 0.00 0.00 0.00 85 982.9
20260508074622 3 186 6.4 0.0 0.00 0.00 0.00 88 983.9
20260508073140 3 196 6.4 0.0 0.00 0.00 0.00 88 983.9
20260508071620 4 204 4.8 0.0 0.00 0.00 0.00 88 983.9
20260508070152 4 204 4.8 0.0 0.00 0.00 0.00 88 983.9
20260508064621 4 202 6.4 0.0 0.00 0.00 0.00 84 983.4
20260508063136 5 194 6.4 0.0 0.00 0.00 0.00 85 983.8
20260508061620 5 207 4.8 0.0 0.00 0.00 0.00 85 983.8
20260508060213 5 214 4.8 0.0 0.00 0.00 0.00 85 983.8
20260508054619 5 215 4.8 0.0 0.00 0.00 0.00 81 984.6
20260508053140 5 201 6.4 0.0 0.00 0.00 0.00 85 984.3
20260508051619 5 193 6.4 0.0 0.00 0.00 0.00 85 984.3
20260508050154 5 196 6.4 0.0 0.00 0.00 0.00 85 984.3
20260508044619 5 200 6.4 0.0 0.00 0.00 0.00 82 984.6
20260508043135 6 227 6.4 0.0 0.00 0.00 0.00 81 984.0